Simultaneous Nadir Overpasses (SNOs) Predictions

Prediction of SNOs between AQUA and NPP Satellite Orbit:

Table of predicted SNOs for the next 14.0 days since TLE Epoch: 12/31/2021
Index Date (AQUA) Time (AQUA) Lat,Lon (AQUA) SZA (AQUA ) Date (NPP) Time (NPP) Lat,Lon (NPP) SZA (NPP ) Distance(km) Time Diff (sec)
1 01/01/2022 05:33:05 75.55, -25.29 120.24 01/01/2022 05:31:53 75.55, -25.30 120.31 0.36 72
2 01/01/2022 06:22:13 -76.51, 145.34 60.82 01/01/2022 06:22:18 -76.50, 145.26 60.80 2.30 5
3 01/03/2022 21:49:24 76.08, 92.18 119.49 01/03/2022 21:48:33 76.09, 92.24 119.52 1.67 51
4 01/03/2022 22:38:33 -76.97, -97.13 61.52 01/03/2022 22:38:59 -76.97, -97.13 61.54 0.17 26
5 01/06/2022 14:05:50 76.25,-151.39 119.08 01/06/2022 14:05:21 76.25,-151.42 119.11 0.82 29
6 01/06/2022 14:55:00 -77.09, 19.20 61.89 01/06/2022 14:55:48 -77.08, 19.12 61.91 2.24 48
7 01/09/2022 06:22:13 76.50, -34.67 118.51 01/09/2022 06:22:06 76.49, -34.74 118.53 2.03 7
8 01/09/2022 07:11:17 -77.61, 137.15 62.79 01/09/2022 07:12:26 -77.62, 137.26 62.87 2.83 69
9 01/11/2022 21:49:25 -76.10, -87.73 61.39 01/11/2022 21:48:22 -76.11, -87.64 61.35 2.42 63
10 01/11/2022 22:38:36 76.78, 82.20 117.85 01/11/2022 22:38:51 76.78, 82.13 117.85 1.93 15



Historial Predications of SNOs between AQUA and NPP
